When you browse on this site, cookies collect data to enhance your experience and personalize the content and advertising you see.
Visit our Privacy Policy to learn more. By continuing to use the site, you agree to this use of cookies and data.
  • In Czech Republic
  • List of Countries
  • For 7 days
  • Water Temperature
  • Satellite Maps
  • Weather Map
  • Weather Widgets
  • user-avatar
    Login

    Hourly Weather Gjirokaster

    Today, 25 June, Tuesday

    Time Temperature Precipitation Wind Pressure Humidity
    00:00 +14°C° 0 mm 2 mps 652 mmHg 83%
    01:00 +14°C° 0 mm 2 mps 652 mmHg 82%
    02:00 +14°C° 0 mm 2 mps 652 mmHg 81%
    03:00 +14°C° 0 mm 2 mps 651 mmHg 79%
    04:00 +14°C° 0 mm 2 mps 651 mmHg 77%
    05:00 +15°C° 0 mm 2 mps 652 mmHg 73%
    06:00 +17°C° 0 mm 2 mps 653 mmHg 68%
    07:00 +19°C° 0 mm 2 mps 654 mmHg 63%
    08:00 +20°C° 0 mm 2 mps 654 mmHg 57%
    09:00 +23°C° 0 mm 2 mps 655 mmHg 51%
    10:00 +24°C° 0 mm 2 mps 656 mmHg 45%
    11:00 +25°C° 0 mm 2 mps 656 mmHg 43%
    12:00 +26°C° 0 mm 2 mps 656 mmHg 41%
    13:00 +26°C° 0 mm 2 mps 656 mmHg 39%
    14:00 +26°C° 0 mm 2 mps 656 mmHg 42%
    15:00 +25°C° 0 mm 2 mps 656 mmHg 45%
    16:00 +25°C° 0 mm 2 mps 656 mmHg 48%
    17:00 +23°C° 0 mm 2 mps 655 mmHg 53%
    18:00 +21°C° 0 mm 2 mps 655 mmHg 59%
    19:00 +21°C° 0 mm 1 mps 655 mmHg 64%
    20:00 +20°C° 0 mm 1 mps 655 mmHg 65%
    21:00 +18°C° 0 mm 2 mps 655 mmHg 66%
    22:00 +17°C° 0 mm 2 mps 655 mmHg 68%
    23:00 +17°C° 0 mm 2 mps 655 mmHg 68%

    Tomorrow, 26 June, Wednesday

    Time Temperature Precipitation Wind Pressure Humidity
    00:00 +16°C° 0 mm 2 mps 655 mmHg 68%
    01:00 +16°C° 0 mm 2 mps 655 mmHg 69%
    02:00 +16°C° 0 mm 2 mps 654 mmHg 69%
    03:00 +16°C° 0 mm 2 mps 654 mmHg 69%
    04:00 +15°C° 0 mm 2 mps 654 mmHg 69%
    05:00 +17°C° 0 mm 2 mps 655 mmHg 66%
    06:00 +20°C° 0 mm 1 mps 655 mmHg 63%
    07:00 +21°C° 0 mm 1 mps 656 mmHg 60%
    08:00 +23°C° 0 mm 1 mps 656 mmHg 55%
    09:00 +24°C° 0 mm 1 mps 656 mmHg 50%
    10:00 +25°C° 0 mm 1 mps 657 mmHg 45%
    11:00 +26°C° 0 mm 2 mps 657 mmHg 44%
    12:00 +26°C° 0 mm 2 mps 657 mmHg 43%
    13:00 +26°C° 0 mm 2 mps 657 mmHg 42%
    14:00 +26°C° 0 mm 2 mps 657 mmHg 45%
    15:00 +25°C° 0 mm 2 mps 656 mmHg 48%
    16:00 +25°C° 0 mm 2 mps 656 mmHg 51%
    17:00 +23°C° 0 mm 1 mps 656 mmHg 56%
    18:00 +22°C° 0 mm 1 mps 655 mmHg 60%
    19:00 +21°C° 0 mm 1 mps 655 mmHg 64%
    20:00 +20°C° 0 mm 1 mps 655 mmHg 66%
    21:00 +19°C° 0 mm 1 mps 655 mmHg 68%
    22:00 +17°C° 0 mm 2 mps 655 mmHg 70%
    23:00 +17°C° 0 mm 2 mps 655 mmHg 71%

    Day after tomorrow, 27 June, Thursday

    Time Temperature Precipitation Wind Pressure Humidity
    00:00 +17°C° 0 mm 2 mps 655 mmHg 72%
    01:00 +17°C° 0 mm 2 mps 654 mmHg 72%
    02:00 +16°C° 0 mm 2 mps 654 mmHg 73%
    03:00 +16°C° 0 mm 2 mps 654 mmHg 73%
    04:00 +16°C° 0 mm 2 mps 654 mmHg 73%
    05:00 +17°C° 0 mm 2 mps 654 mmHg 69%
    06:00 +20°C° 0 mm 1 mps 655 mmHg 65%
    07:00 +21°C° 0 mm 1 mps 655 mmHg 60%
    08:00 +23°C° 0 mm 1 mps 655 mmHg 55%
    09:00 +24°C° 0 mm 1 mps 656 mmHg 49%
    10:00 +25°C° 0 mm 1 mps 656 mmHg 43%
    11:00 +26°C° 0 mm 2 mps 656 mmHg 43%
    12:00 +26°C° 0 mm 2 mps 656 mmHg 42%
    13:00 +27°C° 0 mm 3 mps 656 mmHg 42%
    14:00 +26°C° 0 mm 3 mps 655 mmHg 44%
    15:00 +26°C° 0 mm 3 mps 655 mmHg 46%
    16:00 +25°C° 0 mm 3 mps 654 mmHg 49%
    17:00 +24°C° 0 mm 2 mps 654 mmHg 55%
    18:00 +21°C° 0 mm 2 mps 653 mmHg 61%
    19:00 +21°C° 0 mm 1 mps 652 mmHg 67%
    20:00 +20°C° 0 mm 1 mps 652 mmHg 67%
    21:00 +19°C° 0 mm 1 mps 652 mmHg 67%
    22:00 +19°C° 0 mm 1 mps 652 mmHg 67%
    23:00 +18°C° 0 mm 1 mps 652 mmHg 67%

    28 June, Friday

    Time Temperature Precipitation Wind Pressure Humidity
    00:00 +18°C° 0 mm 1 mps 652 mmHg 67%
    01:00 +16°C° 0 mm 1 mps 651 mmHg 67%
    02:00 +16°C° 0 mm 1 mps 651 mmHg 66%
    03:00 +16°C° 0 mm 1 mps 651 mmHg 66%
    04:00 +16°C° 0 mm 1 mps 650 mmHg 65%
    05:00 +18°C° 0 mm 1 mps 651 mmHg 61%
    06:00 +20°C° 0 mm 1 mps 651 mmHg 58%
    07:00 +22°C° 0 mm 1 mps 652 mmHg 54%
    08:00 +23°C° 0 mm 1 mps 652 mmHg 48%
    09:00 +25°C° 0 mm 1 mps 652 mmHg 42%
    10:00 +27°C° 0 mm 1 mps 653 mmHg 36%
    11:00 +27°C° 0 mm 2 mps 653 mmHg 36%
    12:00 +27°C° 0 mm 2 mps 653 mmHg 37%
    13:00 +28°C° 0 mm 2 mps 652 mmHg 37%
    14:00 +27°C° 0 mm 3 mps 652 mmHg 40%
    15:00 +27°C° 0 mm 3 mps 652 mmHg 43%
    16:00 +26°C° 0 mm 3 mps 651 mmHg 46%
    17:00 +25°C° 0.1 mm 3 mps 651 mmHg 51%
    18:00 +23°C° 0.1 mm 2 mps 651 mmHg 57%
    19:00 +20°C° 0.1 mm 2 mps 650 mmHg 62%
    20:00 +19°C° 0 mm 2 mps 650 mmHg 62%
    21:00 +18°C° 0 mm 2 mps 650 mmHg 61%
    22:00 +18°C° 0 mm 2 mps 650 mmHg 61%
    23:00 +17°C° 0 mm 2 mps 650 mmHg 64%

    29 June, Saturday

    Time Temperature Precipitation Wind Pressure Humidity
    00:00 +17°C° 0 mm 2 mps 650 mmHg 67%
    01:00 +16°C° 0 mm 2 mps 650 mmHg 70%
    02:00 +16°C° 0 mm 2 mps 650 mmHg 70%
    03:00 +15°C° 0 mm 2 mps 650 mmHg 70%
    04:00 +15°C° 0 mm 2 mps 649 mmHg 70%
    05:00 +16°C° 0 mm 2 mps 650 mmHg 63%
    06:00 +17°C° 0 mm 2 mps 650 mmHg 57%
    07:00 +19°C° 0 mm 2 mps 651 mmHg 50%
    08:00 +20°C° 0 mm 2 mps 652 mmHg 46%
    09:00 +22°C° 0 mm 1 mps 652 mmHg 42%
    10:00 +24°C° 0 mm 1 mps 653 mmHg 37%
    11:00 +24°C° 0 mm 1 mps 653 mmHg 39%
    12:00 +25°C° 0 mm 2 mps 653 mmHg 41%
    13:00 +25°C° 0 mm 2 mps 653 mmHg 43%
    14:00 +25°C° 0 mm 2 mps 653 mmHg 44%
    15:00 +25°C° 0 mm 2 mps 652 mmHg 46%
    16:00 +24°C° 0 mm 3 mps 652 mmHg 48%
    17:00 +23°C° 0 mm 2 mps 652 mmHg 53%
    18:00 +20°C° 0 mm 2 mps 652 mmHg 58%
    19:00 +20°C° 0 mm 1 mps 652 mmHg 63%
    20:00 +19°C° 0 mm 1 mps 652 mmHg 64%
    21:00 +17°C° 0 mm 2 mps 652 mmHg 65%
    22:00 +16°C° 0 mm 2 mps 652 mmHg 66%
    23:00 +16°C° 0 mm 2 mps 652 mmHg 67%

    30 June, Sunday

    Time Temperature Precipitation Wind Pressure Humidity
    00:00 +15°C° 0 mm 2 mps 651 mmHg 69%
    01:00 +15°C° 0 mm 2 mps 651 mmHg 70%
    02:00 +14°C° 0 mm 2 mps 651 mmHg 69%
    03:00 +14°C° 0 mm 2 mps 651 mmHg 69%
    04:00 +14°C° 0 mm 2 mps 651 mmHg 68%
    05:00 +15°C° 0 mm 2 mps 652 mmHg 64%
    06:00 +17°C° 0 mm 2 mps 652 mmHg 60%
    07:00 +18°C° 0 mm 2 mps 653 mmHg 55%
    08:00 +21°C° 0 mm 1 mps 654 mmHg 49%
    09:00 +22°C° 0 mm 1 mps 654 mmHg 42%
    10:00 +24°C° 0 mm 1 mps 655 mmHg 36%
    11:00 +24°C° 0 mm 1 mps 655 mmHg 36%
    12:00 +24°C° 0 mm 2 mps 655 mmHg 36%
    13:00 +25°C° 0 mm 2 mps 655 mmHg 36%
    14:00 +24°C° 0 mm 3 mps 655 mmHg 40%
    15:00 +24°C° 0 mm 3 mps 655 mmHg 45%
    16:00 +22°C° 0 mm 3 mps 655 mmHg 49%
    17:00 +21°C° 0 mm 2 mps 654 mmHg 55%
    18:00 +19°C° 0 mm 2 mps 654 mmHg 62%
    19:00 +18°C° 0 mm 1 mps 654 mmHg 68%
    20:00 +18°C° 0 mm 1 mps 654 mmHg 66%
    21:00 +16°C° 0 mm 1 mps 654 mmHg 63%
    22:00 +15°C° 0 mm 2 mps 654 mmHg 61%
    23:00 +15°C° 0 mm 2 mps 654 mmHg 60%
    Show more